Other Public Products
Issued by NWS Charleston, SC

Current Version | Previous Version | Graphics & Text | Print | Product List | Glossary On
Versions: 1 2 3 4 5 6 7 8 9 10 11 12 13 14 15 16 17 18 19 20 21 22 23 24 25 26 27 28 29 30 31 32 33 34 35 36 37 38 39 40 41 42 43 44 45 46 47 48 49 50
000 FPUS82 KCHS 231611 OPUCHS TEST...KCHS/KSAV Gateway Observations...TEST National Weather Service Charleston SC 1100 AM EST THU FEB 23 2017 NOTE: "fair" indicates few or no clouds below 12,000 feet with no significant weather and/or obstructions to visibility. SCZ050-WAZ558-NCZ071-TXZ119-213-PAZ071-DCZ001-FLZ074-172-MI076- NYZ176-178-MAZ016-IL014-TNZ027-NJZ106-GAZ044-MD014-231700- ...Gateway Observations for Charleston International... CITY SKY/WX TMP DP RH WIND PRES REMARKS Chas Airport PTSUNNY 74 59 59 NE14 29.88S Seattle MOCLDY 37 35 92 CALM 30.25R Charlotte MOSUNNY 68 54 60 VRB3 29.95F Dallas DFW SUNNY 72 48 42 S14 29.62F Dallas Love SUNNY 71 48 43 SE10 29.64F Philladelphia CLOUDY 54 53 97 SW9 29.91F FOG Wash National MOSUNNY 64 55 72 S12 29.91S Baltimore MOSUNNY 68 55 63 CALM 29.89S Miami MOSUNNY 70 61 73 W3 29.69S Detroit PTSUNNY 62 50 64 W12 29.72R Newark CLOUDY 51 48 89 SW8 29.89F FOG Laguardia CLOUDY 55 49 80 SW10 29.89F J F K FOG 49 49 100 S7 29.91F VSB 1/2 Boston Logan MOSUNNY 60 44 55 S12 29.83F Ft. Lauderdale MOSUNNY 74 60 61 W12 29.67S Chicago O`Hare CLOUDY 50 40 68 NE15 29.79S Chicago Midway PTSUNNY 51 40 65 NE17 29.80R Houston Bush SUNNY 73 60 63 S9 29.80R Houston Hobby SUNNY 72 62 71 S10 29.80R Nashville PTSUNNY 66 56 70 S8 29.87F Atlanta MOSUNNY 65 57 75 E9 29.92S $$ GAZ044-118-TXZ119-213-NCZ071-DCZ001-MDZ014-506-PAZ021-071-NJZ106- NYZ176-178-MAZ106-OHZ011-021-055-MIZ076-KYZ091-ILZ014-INZ047- MNZ060-ONZ431-231700- ...Gateway Observations for Savannah International... CITY SKY/WX TMP DP RH WIND PRES REMARKS Savannah Arpt CLOUDY 71 60 68 NE13 29.86S Atlanta MOSUNNY 65 57 75 E9 29.92S Charlotte MOSUNNY 68 54 60 VRB3 29.95F Dallas DFW SUNNY 72 48 42 S14 29.62F Houston Bush SUNNY 73 60 63 S9 29.80R Wash National MOSUNNY 64 55 72 S12 29.91S Wash Dulles MOSUNNY 66 53 63 S7 29.90S Baltimore MOSUNNY 68 55 63 CALM 29.89S Philadelphia CLOUDY 54 53 97 SW9 29.91F FOG Newark CLOUDY 51 48 89 SW8 29.89F FOG Laguardia CLOUDY 55 49 80 SW10 29.89F J F K FOG 49 49 100 S7 29.91F VSB 1/2 Boston MOSUNNY 60 44 55 S12 29.83F Pittsburg CLOUDY 61 55 81 SW13 29.82S Akron CLOUDY 61 55 81 SW14 29.79S Cleveland CLOUDY 63 53 70 W17 29.78R Cincinnati PTSUNNY 63 57 81 SW14 29.81S Columbus CLOUDY 63 58 82 SW14 29.80F Detroit PTSUNNY 62 50 64 W12 29.72R Chicago O`Hare CLOUDY 50 40 68 NE15 29.79S Minneapolis CLOUDY 34 25 69 NE9G20 29.93S WCI 27 Indianapolis CLOUDY 61 56 83 SW10 29.78S Toronto Canada PTSUNNY 59 52 77 SW20G30 29.61S $$

USA.gov is the U.S. government's official web portal to all federal, state and local government web resources and services.